Location: North Mitre
(40.7833°S, 175.4667°E)
Time: 17:11:30
(UTC+00:00)

Lacrosse 5 - Pass Details

Date: 04 August 2024
Orbit: 714 x 724 km, 57.0° (Epoch: 09 March)

Event Time Altitude Azimuth Distance (km) Brightness Sun altitude
Exits shadow 18:10:36 - 211° (SSW) 2,451 4.2 -13.5°
Reaches altitude 10° 18:11:37 10° 202° (SSW) 2,247 4.1 -13.3°
Maximum altitude 18:14:09 14° 172° (S) 2,012 4.1 -12.8°
Drops below altitude 10° 18:16:41 10° 143° (SE) 2,244 4.8 -12.4°
Sets 18:20:23 0° 116° (ESE) 3,162 6.1 -11.7°
